Volver al catálogo

STARLINK-37154

ActivoComunicacionesSSO
NORAD 68316·PAYLOAD·🇺🇸 United States

Lanzado Mar 20, 2026 desde Vandenberg Space Force Base

Loading…

Próximos Pases (próximas 24 horas)

TLE

ActualizadoSource: CelesTrak SupGP

Época: Sep 15, 2026, 04:07 UTC

1 68316C 26057Y   26258.17201389 -.00010152  00000+0 -31509-3 0  2587
2 68316  97.2850  23.5756 0001138  93.0028 224.2289 15.33451036    11

Sigue STARLINK-37154 en tiempo real con AllMySat

Download on the App Store